Current weather by "City, St" or "zip code"  
 

Current Conditions: Newport, Newport State Airport, RI

Fog/Mist


60.0 F

Last Updated on May 21 2022, 4:53 am EDT
Humidity: 96%
Wind Speed: SE 9.2 G 18.4 mph
Barometer 29.96 in
Dewpoint: 59.0 F
Visibility: 5.00 mi
Precip: --
Heat Index: NA
Wind Chill: 59 F
Current conditions at:

Newport, Newport State Airport, RI (KUUU)

Lat: 41.53 Lon: 71.28361

Local Radar Image active severe weather and emergency alerts image image weather storm and storm spotter reports image weather observation monitoring service image
Local
Radar
Active
Alerts
Storm Reports Obs
Monitoring

Sign-up For Email & Text Message Weather Alert Notification Services



Advertise Here

Observation History for Newport, Newport State Airport, RI


Time Wind
(mph)
Vis
(mi)
Weather Precip (in) Temperature (F) Relative
Humidity
Wind
Chill
(F)
Heat
Index
(F)
Pressure
Air Dwpt altimeter
(in)
sea level
(mb)
Rmks
4:53 am EDT SE 9.2 G 18.4 5.00 Fog/Mist -- 60.0 59.0 96% 59 NA 29.96 1014.4
3:53 am EDT SE 8.1 3.00 Fog/Mist -- 60.0 59.0 96% 59 NA 29.97 1014.7
2:53 am EDT 3.5 5.00 Fog/Mist -- 59.0 59.0 100% NA NA 29.99 1015.2
1:53 am EDT SE 8.1 7.00 Overcast 00.01 61.0 60.1 97% 60 NA 30.00 1015.7
12:53 am EDT SE 5.8 1.75 Rain Fog/Mist 00.38 61.0 60.1 97% 61 NA 30.02 1016.2
11:53 pm EDT W 10.4 5.00 Fog/Mist 00.01 58.0 57.0 97% 56 NA 30.06 1017.7
10:53 pm EDT SE 6.9 5.00 Light Rain Fog/Mist Trace 57.0 55.9 96% 56 NA 30.03 1016.8
9:53 pm EDT SE 10.4 8.00 Overcast -- 57.0 55.0 93% 55 NA 30.03 1016.8
8:53 pm EDT SE 9.2 10.00 Overcast -- 57.0 55.0 93% 55 NA 30.06 1017.7
7:53 pm EDT SE 11.5 10.00 Mostly Cloudy -- 58.0 54.0 87% 56 NA 30.01 1016.1
5:53 pm EDT SE 8.1 9.00 Overcast -- 59.0 54.0 83% 58 NA 30.03 1016.7
4:53 pm EDT SE 8.1 10.00 Mostly Cloudy -- 59.0 54.0 83% 58 NA 30.03 1016.7
3:53 pm EDT SE 9.2 10.00 Mostly Cloudy -- 60.0 54.0 80% 59 NA 30.03 1017.0
2:53 pm EDT S 8.1 10.00 Fair -- 62.0 55.9 80% 61 NA 30.04 1017.0
11:53 am EDT S 9.2 10.00 Fair -- 62.0 54.0 75% 61 NA 30.05 1017.5
10:53 am EDT SE 10.4 10.00 A Few Clouds -- 63.0 52.0 68% 62 NA 30.03 1016.7
9:53 am EDT N 0.0 10.00 Overcast -- 63.0 54.0 73% NA NA 30.02 1016.4
8:53 am EDT N 0.0 10.00 Fair -- 61.0 54.0 78% NA NA 30.00 1015.7
7:53 am EDT N 0.0 1.00 Fog/Mist -- 53.0 53.1 100% NA NA 29.99 1015.4
5:53 am EDT N 0.0 0.25 Fog -- 47.0 46.9 100% NA NA 29.90 1012.5

Regional Weather Observation


Providence, Theodore Francis Green State Airport, RI (KPVD)

Fog/Mist
62.0 F

Taunton, Taunton Municipal Airport, MA (KTAN)

Fog/Mist
62.0 F

Newport, Newport State Airport, RI (KUUU)

Fog/Mist
60.0 F

Westerly, Westerly State Airport, RI (KWST)

Fog/Mist
61.0 F

Block Island State Airport, RI (KBID)

Thunderstorm in Vicinity Light Rain Fog
57.0 F

Montauk, Montauk Airport, NY (KMTP)

NULL
59.0 F

Advertise Here


Advertise Here